period_start,C,m1,H,J0,J1,J2,J3,J4,J5,JA,JB,JC,JD,JJ,JK,JN,#
2016-12-12 00:00:02,0.25,9.84,0.00,18.17,22.27,26.17,15.01,54.18,1026.39,2045.48,1335.45,1474.54,1655.31,599.98,611.71,45.65,0000 0000 0000 0000 000000
2016-12-12 00:05:04,0.33,9.85,0.00,18.20,22.30,26.20,15.03,53.97,1026.82,2045.13,1333.41,1472.93,1653.51,599.96,611.86,45.70,0000 0000 0000 0000 000000
2016-12-12 00:10:05,0.35,9.87,0.00,18.25,22.33,26.22,15.09,53.83,1027.12,2045.03,1331.33,1471.46,1651.68,600.25,612.29,45.75,0000 0000 0000 0000 000000
2016-12-12 00:15:06,0.37,9.89,0.00,18.28,22.36,26.28,15.08,53.86,1027.31,2045.00,1329.19,1469.89,1649.80,599.77,611.85,45.80,0000 0000 0000 0000 000000
2016-12-12 00:20:07,0.36,9.91,0.00,18.29,22.38,26.28,14.99,53.87,1027.27,2045.00,1327.08,1468.36,1648.01,599.96,611.99,45.85,0000 0000 0000 0000 000000
2016-12-12 00:25:09,0.39,9.93,0.00,18.33,22.42,26.28,15.07,54.03,1027.35,2045.00,1324.94,1466.70,1646.13,599.92,611.96,45.90,0000 0000 0000 0000 000000
2016-12-12 00:30:11,0.33,9.95,0.00,18.35,22.45,26.33,15.06,54.06,1027.34,2044.99,1322.93,1465.11,1644.31,599.91,611.79,45.95,0000 0000 0000 0000 000000
2016-12-12 00:35:12,0.48,9.97,0.00,18.43,22.48,26.34,15.01,53.94,1027.33,2044.97,1320.66,1463.37,1642.25,599.79,611.43,46.00,0000 0000 0000 0000 000000
2016-12-12 00:40:14,0.37,9.99,0.00,18.47,22.51,26.40,15.06,54.29,1027.17,2044.82,1317.98,1461.42,1639.99,600.26,611.76,46.05,0000 0000 0000 0000 000000
2016-12-12 00:45:15,0.28,10.00,0.00,18.55,22.55,26.38,15.00,54.21,1027.33,2044.20,1315.97,1459.74,1638.13,599.74,611.28,46.10,0000 0000 0000 0000 000000
2016-12-12 00:50:17,0.34,10.02,0.00,18.46,22.59,26.40,15.06,54.21,1027.33,2044.03,1313.90,1458.11,1636.25,600.09,611.85,46.15,0000 0000 0000 0000 000000
2016-12-12 00:55:19,0.38,10.04,0.00,18.45,22.62,26.45,15.11,54.16,1027.37,2044.00,1311.88,1456.52,1634.37,599.76,611.59,46.20,0000 0000 0000 0000 000000
2016-12-12 01:00:20,0.38,10.06,0.00,18.50,22.66,26.50,15.15,54.27,1027.37,2044.00,1309.78,1454.87,1632.55,600.08,611.71,46.25,0000 0000 0000 0000 000000
2016-12-12 01:05:22,0.35,10.08,0.00,18.54,22.69,26.56,15.01,54.20,1027.39,2043.99,1307.81,1453.34,1630.68,599.85,611.37,46.30,0000 0000 0000 0000 000000
2016-12-12 01:10:23,0.38,10.10,0.00,18.58,22.73,26.59,15.04,54.21,1027.40,2043.98,1305.85,1451.74,1628.81,599.54,611.04,46.35,0000 0000 0000 0000 000000
2016-12-12 01:15:25,0.28,10.12,0.00,18.65,22.77,26.64,15.05,54.16,1027.41,2043.64,1303.83,1450.19,1626.98,600.07,611.39,46.40,0000 0000 0000 0000 000000
2016-12-12 01:20:26,0.33,10.13,0.00,18.69,22.81,26.68,15.01,54.25,1027.36,2043.16,1301.74,1448.56,1625.10,600.07,611.31,46.46,0000 0000 0000 0000 000000
2016-12-12 01:25:28,0.36,10.15,0.00,18.76,22.84,26.74,15.03,54.23,1027.35,2043.01,1299.70,1446.90,1623.26,600.04,610.95,46.51,0000 0000 0000 0000 000000
2016-12-12 01:30:29,0.37,10.17,0.00,18.78,22.88,26.76,15.04,54.17,1027.15,2043.00,1297.67,1445.34,1621.43,600.00,610.89,46.56,0000 0000 0000 0000 000000
2016-12-12 01:35:31,0.39,10.18,0.00,18.82,22.93,26.80,15.02,54.23,1027.01,2042.97,1295.64,1443.67,1619.53,599.97,610.69,46.61,0000 0000 0000 0000 000000
2016-12-12 01:40:32,0.37,10.20,0.00,18.86,22.97,26.85,15.00,54.33,1027.10,2042.95,1293.58,1442.04,1617.60,600.11,610.87,46.66,0000 0000 0000 0000 000000
2016-12-12 01:45:33,0.34,10.22,0.00,18.89,23.00,26.88,15.01,54.36,1026.91,2042.65,1291.38,1440.36,1615.66,600.26,610.74,46.71,0000 0000 0000 0000 000000
2016-12-12 01:50:34,0.36,10.24,0.00,18.89,23.04,26.92,15.05,54.46,1027.08,2042.12,1289.16,1438.58,1613.62,600.28,610.85,46.76,0000 0000 0000 0000 000000
2016-12-12 01:55:36,0.39,10.26,0.00,18.93,23.08,26.96,14.99,54.31,1027.07,2042.03,1287.11,1436.87,1611.70,600.12,610.64,46.81,0000 0000 0000 0000 000000
2016-12-12 02:00:37,0.39,10.28,0.00,18.97,23.13,27.00,14.97,54.33,1027.00,2042.00,1284.95,1435.22,1609.75,599.93,610.33,46.86,0000 0000 0000 0000 000000
2016-12-12 02:05:38,0.40,10.30,0.00,18.99,23.17,27.04,15.01,54.33,1026.90,2042.00,1282.85,1433.54,1607.85,599.74,610.02,46.91,0000 0000 0000 0000 000000
2016-12-12 02:10:40,0.39,10.32,0.00,19.02,23.21,27.10,15.06,54.48,1026.89,2041.97,1280.73,1431.85,1605.91,599.88,610.06,46.96,0000 0000 0000 0000 000000
2016-12-12 02:15:41,0.32,10.34,0.00,19.03,23.25,27.13,14.98,54.40,1026.99,2041.60,1278.68,1430.17,1603.98,599.57,610.01,47.01,0000 0000 0000 0000 000000
2016-12-12 02:20:42,0.33,10.35,0.00,19.08,23.28,27.18,15.02,54.35,1027.24,2041.09,1276.71,1428.54,1602.02,600.08,610.48,47.06,0000 0000 0000 0000 000000
2016-12-12 02:25:43,0.39,10.37,0.00,19.10,23.32,27.21,15.03,54.46,1027.27,2041.01,1274.60,1426.86,1600.15,600.12,610.45,47.11,0000 0000 0000 0000 000000
2016-12-12 02:30:44,0.38,10.39,0.00,19.11,23.36,27.23,15.01,54.45,1027.35,2041.00,1272.48,1425.20,1598.38,599.76,610.12,47.16,0000 0000 0000 0000 000000
2016-12-12 02:35:46,0.39,10.41,0.00,19.13,23.39,27.25,15.04,54.57,1027.37,2040.99,1270.47,1423.59,1596.54,599.70,610.01,47.21,0000 0000 0000 0000 000000
2016-12-12 02:40:47,0.37,10.43,0.00,19.16,23.43,27.29,15.04,54.58,1027.42,2040.95,1268.55,1421.98,1594.71,600.12,610.30,47.26,0000 0000 0000 0000 000000
2016-12-12 02:45:48,0.30,10.45,0.00,19.18,23.47,27.32,14.94,54.57,1027.39,2040.46,1266.61,1420.49,1592.86,599.65,609.92,47.31,0000 0000 0000 0000 000000
2016-12-12 02:50:50,0.31,10.47,0.00,19.22,23.50,27.37,15.01,54.59,1027.39,2040.10,1264.65,1418.90,1591.09,600.00,610.29,47.36,0000 0000 0000 0000 000000
2016-12-12 02:55:51,0.37,10.48,0.00,19.22,23.53,27.40,15.01,54.46,1027.36,2040.01,1262.62,1417.33,1589.27,600.28,610.49,47.42,0000 0000 0000 0000 000000
2016-12-12 03:00:52,0.39,10.50,0.00,19.27,23.57,27.41,15.01,54.40,1027.41,2040.00,1260.64,1415.75,1587.49,600.33,610.40,47.47,0000 0000 0000 0000 000000
2016-12-12 03:05:53,0.37,10.52,0.00,19.32,23.60,27.45,14.99,54.48,1027.48,2040.00,1258.69,1414.25,1585.70,600.37,610.33,47.52,0000 0000 0000 0000 000000
2016-12-12 03:10:55,0.38,10.54,0.00,19.33,23.63,27.51,15.05,54.42,1027.58,2039.98,1256.76,1412.68,1583.91,600.04,610.09,47.57,0000 0000 0000 0000 000000
2016-12-12 03:15:56,0.36,10.56,0.00,19.34,23.66,27.50,15.05,54.32,1027.83,2039.94,1254.76,1411.14,1582.16,600.22,610.38,47.62,0000 0000 0000 0000 000000
2016-12-12 03:20:58,0.29,10.57,0.00,19.37,23.69,27.54,15.02,54.37,1027.85,2039.48,1252.86,1409.63,1580.45,600.23,610.18,47.67,0000 0000 0000 0000 000000
2016-12-12 03:25:59,0.30,10.59,0.00,19.40,23.72,27.58,14.99,54.16,1027.85,2039.18,1251.01,1408.25,1578.71,599.97,609.92,47.72,0000 0000 0000 0000 000000
2016-12-12 03:31:00,0.35,10.61,0.00,19.39,23.75,27.61,15.07,54.33,1027.90,2039.03,1249.15,1406.80,1577.03,599.95,609.91,47.77,0000 0000 0000 0000 000000
2016-12-12 03:36:01,0.34,10.63,0.00,19.43,23.78,27.63,15.00,54.27,1027.93,2039.00,1247.31,1405.42,1575.39,599.79,609.78,47.82,0000 0000 0000 0000 000000
2016-12-12 03:41:02,0.37,10.64,0.00,19.48,23.81,27.66,15.01,54.38,1028.10,2039.00,1245.36,1403.91,1573.66,599.93,609.98,47.87,0000 0000 0000 0000 000000
2016-12-12 03:46:04,0.35,10.66,0.00,19.52,23.84,27.69,14.97,54.27,1028.27,2038.99,1243.60,1402.52,1572.01,599.74,609.86,47.92,0000 0000 0000 0000 000000
2016-12-12 03:51:05,0.36,10.68,0.00,19.52,23.87,27.71,15.02,54.34,1028.32,2038.97,1241.73,1401.02,1570.33,599.90,609.97,47.97,0000 0000 0000 0000 000000
2016-12-12 03:56:07,0.28,10.70,0.00,19.57,23.91,27.72,15.08,54.51,1028.25,2038.70,1240.01,1399.64,1568.66,600.14,610.08,48.02,0000 0000 0000 0000 000000
2016-12-12 04:01:08,0.25,10.71,0.00,19.61,23.94,27.78,14.96,54.44,1027.87,2038.12,1238.36,1398.29,1567.05,599.76,609.45,48.07,0000 0000 0000 0000 000000
2016-12-12 04:06:09,0.35,10.73,0.00,19.63,23.97,27.80,15.02,54.37,1027.85,2038.01,1236.69,1396.86,1565.45,600.10,609.55,48.12,0000 0000 0000 0000 000000
2016-12-12 04:11:11,0.37,10.75,0.00,19.61,24.00,27.82,15.01,54.32,1027.85,2038.00,1234.84,1395.48,1563.79,600.10,609.69,48.17,0000 0000 0000 0000 000000
2016-12-12 04:16:12,0.32,10.76,0.00,19.64,24.03,27.87,15.08,54.73,1027.85,2038.00,1233.05,1394.05,1562.26,600.10,609.60,48.23,0000 0000 0000 0000 000000
2016-12-12 04:21:13,0.35,10.78,0.00,19.67,24.06,27.90,14.95,54.50,1027.85,2037.99,1231.44,1392.69,1560.63,600.03,609.45,48.28,0000 0000 0000 0000 000000
2016-12-12 04:26:15,0.33,10.80,0.00,19.69,24.09,27.92,15.01,54.47,1027.86,2037.92,1229.65,1391.37,1559.04,600.10,609.57,48.33,0000 0000 0000 0000 000000
2016-12-12 04:31:17,0.27,10.81,0.00,19.70,24.11,27.97,14.99,54.45,1027.90,2037.64,1227.96,1389.91,1557.47,600.06,609.50,48.38,0000 0000 0000 0000 000000
2016-12-12 04:36:18,0.28,10.83,0.00,19.71,24.14,27.99,14.99,54.33,1027.94,2037.11,1226.23,1388.58,1555.81,600.14,609.47,48.43,0000 0000 0000 0000 000000
2016-12-12 04:41:19,0.32,10.84,0.00,19.75,24.16,28.04,14.98,54.49,1027.87,2037.03,1224.50,1387.25,1554.32,600.14,609.49,48.48,0000 0000 0000 0000 000000
2016-12-12 04:46:21,0.37,10.86,0.00,19.78,24.18,28.04,15.03,54.47,1027.96,2037.00,1222.76,1385.85,1552.75,600.01,609.29,48.53,0000 0000 0000 0000 000000
2016-12-12 04:51:22,0.32,10.88,0.00,19.78,24.21,28.08,15.04,54.65,1028.28,2037.00,1221.08,1384.54,1551.22,599.78,609.36,48.58,0000 0000 0000 0000 000000
2016-12-12 04:56:23,0.32,10.89,0.00,19.77,24.23,28.11,15.04,54.58,1028.33,2036.99,1219.50,1383.23,1549.66,599.78,609.35,48.63,0000 0000 0000 0000 000000
2016-12-12 05:01:24,0.34,10.91,0.00,19.76,24.25,28.10,14.99,54.67,1028.27,2036.97,1217.74,1381.85,1548.13,600.06,609.57,48.68,0000 0000 0000 0000 000000
2016-12-12 05:06:25,0.31,10.93,0.00,19.76,24.27,28.16,15.03,54.67,1028.24,2036.95,1216.18,1380.57,1546.62,600.27,609.76,48.73,0000 0000 0000 0000 000000
2016-12-12 05:11:27,0.30,10.94,0.00,19.73,24.29,28.18,14.98,54.48,1028.31,2036.87,1214.68,1379.35,1545.19,600.04,609.67,48.78,0000 0000 0000 0000 000000
2016-12-12 05:16:28,0.29,10.96,0.00,19.75,24.30,28.21,15.04,54.38,1028.31,2036.67,1213.01,1377.98,1543.69,600.30,609.89,48.83,0000 0000 0000 0000 000000
2016-12-12 05:21:29,0.27,10.97,0.00,19.75,24.32,28.22,14.99,54.47,1028.32,2036.21,1211.41,1376.69,1542.17,599.93,609.69,48.88,0000 0000 0000 0000 000000
2016-12-12 05:26:31,0.33,10.99,0.00,19.75,24.32,28.22,15.06,54.58,1028.33,2036.11,1209.69,1375.44,1540.65,600.16,609.68,48.93,0000 0000 0000 0000 000000
2016-12-12 05:31:32,0.32,11.01,0.00,19.78,24.35,28.24,14.98,54.45,1028.34,2036.04,1207.98,1373.97,1539.13,599.78,609.15,48.98,0000 0000 0000 0000 000000
2016-12-12 05:36:33,0.34,11.02,0.00,19.75,24.35,28.25,15.01,54.48,1028.35,2036.02,1206.39,1372.69,1537.62,599.82,609.39,49.03,0000 0000 0000 0000 000000
2016-12-12 05:41:35,0.33,11.04,0.00,19.75,24.37,28.29,14.95,54.38,1028.37,2036.00,1204.69,1371.44,1536.11,599.83,609.41,49.08,0000 0000 0000 0000 000000
2016-12-12 05:46:36,0.32,11.06,0.00,19.78,24.37,28.25,15.05,54.42,1028.49,2036.00,1202.99,1370.07,1534.72,600.30,609.86,49.14,0000 0000 0000 0000 000000
2016-12-12 05:51:38,0.35,11.07,0.00,19.79,24.39,28.26,15.01,54.43,1028.53,2036.00,1201.30,1368.71,1533.33,599.91,609.56,49.19,0000 0000 0000 0000 000000
2016-12-12 05:56:39,0.35,11.09,0.00,19.79,24.40,28.26,14.99,54.38,1028.46,2036.00,1199.61,1367.44,1531.77,599.91,609.61,49.24,0000 0000 0000 0000 000000
2016-12-12 06:01:41,0.35,11.11,0.00,19.81,24.41,28.27,14.87,54.30,1028.51,2035.99,1197.81,1366.00,1530.17,599.50,609.04,49.29,0000 0000 0000 0000 000000
2016-12-12 06:06:42,0.37,11.13,0.00,19.82,24.42,28.28,14.96,54.45,1028.57,2035.98,1196.06,1364.62,1528.57,599.74,609.29,49.34,0000 0000 0000 0000 000000
2016-12-12 06:11:43,0.34,11.15,0.00,19.82,24.42,28.27,15.06,54.53,1028.78,2035.98,1194.35,1363.27,1526.97,600.25,610.07,49.39,0000 0000 0000 0000 000000
2016-12-12 06:16:44,0.36,11.16,0.00,19.82,24.44,28.34,15.00,54.58,1028.62,2035.98,1192.62,1361.90,1525.49,599.90,609.60,49.44,0000 0000 0000 0000 000000
2016-12-12 06:21:46,0.38,11.18,0.00,19.84,24.45,28.34,15.03,54.75,1028.35,2035.96,1190.79,1360.59,1523.83,599.91,609.39,49.49,0000 0000 0000 0000 000000
2016-12-12 06:26:47,0.36,11.20,0.00,19.84,24.46,28.36,15.01,54.80,1028.21,2035.91,1188.86,1359.10,1522.18,599.97,609.39,49.54,0000 0000 0000 0000 000000
2016-12-12 06:31:48,0.41,11.22,0.00,19.82,24.47,28.34,15.02,54.79,1027.90,2035.93,1186.95,1357.68,1520.59,600.01,609.25,49.59,0000 0000 0000 0000 000000
2016-12-12 06:36:50,0.33,11.24,0.00,19.82,24.47,28.32,15.02,54.88,1028.07,2035.87,1185.16,1356.38,1518.98,600.02,609.24,49.64,0000 0000 0000 0000 000000
2016-12-12 06:41:51,0.33,11.26,0.00,19.79,24.49,28.35,15.02,54.75,1028.33,2035.67,1183.40,1354.95,1517.37,599.70,609.09,49.69,0000 0000 0000 0000 000000
2016-12-12 06:46:53,0.35,11.27,0.00,19.78,24.50,28.36,14.99,54.61,1028.35,2035.48,1181.65,1353.62,1515.80,599.93,609.41,49.74,0000 0000 0000 0000 000000
2016-12-12 06:51:54,0.31,11.29,0.00,19.76,24.50,28.35,15.03,54.71,1028.56,2035.35,1180.05,1352.37,1514.34,599.76,609.49,49.79,0000 0000 0000 0000 000000
2016-12-12 06:56:55,0.31,11.31,0.00,19.77,24.50,28.37,14.95,54.41,1028.82,2035.16,1178.33,1351.04,1512.76,599.60,609.46,49.84,0000 0000 0000 0000 000000
2016-12-12 07:01:56,0.35,11.32,0.00,19.77,24.50,28.38,15.05,54.48,1028.81,2035.06,1176.66,1349.73,1511.30,599.98,609.82,49.89,0000 0000 0000 0000 000000
2016-12-12 07:06:58,0.35,11.34,0.00,19.77,24.50,28.36,15.03,54.58,1028.82,2035.12,1174.93,1348.52,1509.77,600.01,609.80,49.94,0000 0000 0000 0000 000000
2016-12-12 07:11:59,0.30,11.36,0.00,19.76,24.50,28.34,15.02,54.52,1029.12,2035.07,1173.38,1347.30,1508.39,600.07,610.06,49.99,0000 0000 0000 0000 000000
2016-12-12 07:17:01,0.35,11.38,0.00,19.75,24.50,28.35,15.02,54.38,1029.38,2035.05,1171.67,1346.00,1506.89,600.06,610.29,50.05,0000 0000 0000 0000 000000
2016-12-12 07:22:02,0.30,11.39,0.00,19.77,24.50,28.33,15.06,54.54,1029.67,2035.03,1170.18,1344.79,1505.49,599.87,610.27,50.10,0000 0000 0000 0000 000000
2016-12-12 07:27:03,0.34,11.41,0.00,19.77,24.50,28.30,14.98,54.53,1029.81,2035.01,1168.67,1343.59,1504.03,599.89,610.46,50.15,0000 0000 0000 0000 000000
2016-12-12 07:32:05,0.30,11.43,0.00,19.75,24.50,28.31,15.07,54.73,1029.50,2035.01,1167.19,1342.57,1502.60,599.94,610.33,50.20,0000 0000 0000 0000 000000
2016-12-12 07:37:06,0.33,11.44,0.00,19.79,24.50,28.35,15.07,55.20,1028.86,2035.01,1165.60,1341.37,1501.25,600.50,610.40,50.25,0000 0000 0000 0000 000000
2016-12-12 07:42:07,0.31,11.46,0.00,19.80,24.50,28.30,15.03,55.41,1028.37,2035.04,1164.04,1340.21,1499.82,600.25,609.69,50.30,0000 0000 0000 0000 000000
2016-12-12 07:47:08,0.34,11.48,0.00,19.80,24.50,28.32,15.05,55.06,1028.75,2035.03,1162.41,1338.93,1498.46,600.44,610.18,50.35,0000 0000 0000 0000 000000
2016-12-12 07:52:10,0.33,11.49,0.00,19.79,24.50,28.32,14.98,55.03,1028.92,2035.01,1160.81,1337.77,1497.04,600.00,609.78,50.40,0000 0000 0000 0000 000000
2016-12-12 07:57:11,0.32,11.51,0.00,19.81,24.50,28.32,15.04,54.81,1029.22,2035.02,1159.40,1336.59,1495.70,600.33,610.32,50.45,0000 0000 0000 0000 000000
2016-12-12 08:02:12,0.32,11.53,0.00,19.80,24.50,28.31,15.02,54.77,1028.88,2035.03,1157.79,1335.44,1494.34,599.56,609.43,50.50,0000 0000 0000 0000 000000
2016-12-12 08:07:13,0.30,11.54,0.00,19.80,24.50,28.34,15.03,54.73,1029.08,2035.01,1156.34,1334.26,1492.90,600.20,610.14,50.55,0000 0000 0000 0000 000000
2016-12-12 08:12:15,0.33,11.56,0.00,19.80,24.50,28.38,15.02,54.66,1029.32,2035.01,1154.73,1333.06,1491.59,600.57,610.71,50.60,0000 0000 0000 0000 000000
2016-12-12 08:17:16,0.29,11.58,0.00,19.79,24.50,28.37,15.10,54.70,1029.36,2035.00,1153.29,1331.88,1490.22,600.17,610.32,50.65,0000 0000 0000 0000 000000
2016-12-12 08:22:17,0.36,11.59,0.00,19.79,24.50,28.32,15.00,54.73,1029.31,2035.00,1151.72,1330.74,1488.84,599.96,610.04,50.70,0000 0000 0000 0000 000000
2016-12-12 08:27:19,0.31,11.61,0.00,19.77,24.50,28.23,15.04,54.75,1029.30,2035.00,1150.40,1329.55,1487.54,600.19,610.40,50.75,0000 0000 0000 0000 000000
2016-12-12 08:32:20,0.29,11.62,0.00,19.77,24.50,28.23,15.05,54.56,1029.34,2035.00,1148.91,1328.41,1486.17,600.07,610.22,50.80,0000 0000 0000 0000 000000
2016-12-12 08:37:22,0.32,11.64,0.00,19.82,24.50,28.25,15.09,54.48,1029.54,2035.00,1147.49,1327.33,1484.84,600.23,610.39,50.86,0000 0000 0000 0000 000000
2016-12-12 08:42:23,0.31,11.66,0.00,19.78,24.50,28.30,15.03,54.62,1029.37,2035.00,1145.91,1326.14,1483.52,600.31,610.32,50.91,0000 0000 0000 0000 000000
2016-12-12 08:47:24,0.30,11.67,0.00,19.78,24.50,28.33,15.05,54.77,1029.32,2035.00,1144.49,1325.02,1482.24,599.97,610.09,50.96,0000 0000 0000 0000 000000
2016-12-12 08:52:25,0.33,11.69,0.00,19.80,24.50,28.33,15.01,54.80,1029.33,2035.00,1143.01,1323.86,1480.82,599.59,609.67,51.01,0000 0000 0000 0000 000000
2016-12-12 08:57:27,0.33,11.70,0.00,19.82,24.50,28.30,15.05,54.82,1029.58,2035.00,1141.57,1322.72,1479.57,600.07,610.23,51.06,0000 0000 0000 0000 000000
2016-12-12 09:02:28,0.29,11.72,0.00,19.81,24.50,28.31,15.06,54.81,1029.58,2034.99,1140.13,1321.59,1478.24,599.92,610.21,51.11,0000 0000 0000 0000 000000
2016-12-12 09:07:30,0.33,11.73,0.00,19.82,24.50,28.36,15.06,54.83,1029.39,2034.99,1138.66,1320.46,1476.89,600.09,610.26,51.16,0000 0000 0000 0000 000000
2016-12-12 09:12:31,0.30,11.75,0.00,19.82,24.50,28.37,15.02,54.90,1029.62,2034.99,1137.21,1319.38,1475.61,599.96,610.14,51.21,0000 0000 0000 0000 000000
2016-12-12 09:17:33,0.31,11.77,0.00,19.84,24.50,28.36,15.00,54.70,1029.49,2034.98,1135.74,1318.22,1474.31,599.90,609.98,51.26,0000 0000 0000 0000 000000
2016-12-12 09:22:34,0.28,11.78,0.00,19.86,24.52,28.36,15.04,54.94,1029.59,2034.99,1134.35,1317.14,1473.01,600.05,610.15,51.31,0000 0000 0000 0000 000000
2016-12-12 09:27:35,0.29,11.80,0.00,19.85,24.52,28.29,14.99,54.79,1029.48,2034.98,1132.90,1316.02,1471.82,599.82,609.87,51.36,0000 0000 0000 0000 000000
2016-12-12 09:32:36,0.33,11.81,0.00,19.85,24.52,28.30,14.96,54.88,1029.32,2034.99,1131.48,1314.93,1470.69,599.83,609.83,51.41,0000 0000 0000 0000 000000
2016-12-12 09:37:37,0.34,11.83,0.00,19.82,24.52,28.31,15.03,54.95,1029.31,2034.99,1129.92,1313.78,1469.44,599.69,609.74,51.46,0000 0000 0000 0000 000000
2016-12-12 09:42:39,0.33,11.85,0.00,19.80,24.52,28.35,15.00,54.98,1029.31,2034.98,1128.51,1312.68,1468.09,600.18,610.25,51.51,0000 0000 0000 0000 000000
2016-12-12 09:47:40,0.30,11.86,0.00,19.80,24.52,28.31,15.07,55.08,1029.37,2034.99,1127.04,1311.61,1466.79,600.25,610.26,51.56,0000 0000 0000 0000 000000
2016-12-12 09:52:41,0.34,11.88,0.00,19.79,24.52,28.32,15.10,55.13,1029.49,2034.99,1125.58,1310.44,1465.52,600.11,610.31,51.61,0000 0000 0000 0000 000000
2016-12-12 09:57:43,0.28,11.90,0.00,19.75,24.52,28.31,15.09,55.27,1029.30,2034.98,1124.20,1309.37,1464.27,599.93,610.05,51.66,0000 0000 0000 0000 000000
2016-12-12 10:02:44,0.34,11.91,0.00,19.76,24.51,28.25,15.01,55.16,1029.25,2034.98,1122.65,1308.20,1462.90,600.18,610.45,51.71,0000 0000 0000 0000 000000
2016-12-12 10:07:45,0.29,11.93,0.00,19.72,24.50,28.35,15.11,55.18,1029.33,2034.99,1121.24,1307.08,1461.60,600.32,610.56,51.76,0000 0000 0000 0000 000000
2016-12-12 10:12:46,0.30,11.94,0.00,19.71,24.50,28.35,14.96,55.16,1029.33,2034.99,1119.89,1305.98,1460.37,599.70,609.95,51.82,0000 0000 0000 0000 000000
2016-12-12 10:17:48,0.32,11.96,0.00,19.72,24.50,28.34,15.08,55.21,1029.31,2034.98,1118.49,1304.87,1459.11,600.03,610.27,51.87,0000 0000 0000 0000 000000
2016-12-12 10:22:49,0.31,11.98,0.00,19.68,24.49,28.32,15.03,55.26,1029.28,2034.98,1117.09,1303.82,1457.83,600.16,610.49,51.92,0000 0000 0000 0000 000000
2016-12-12 10:27:50,0.34,11.99,0.00,19.66,24.47,28.27,15.06,55.33,1029.15,2034.99,1115.64,1302.74,1456.59,599.93,610.16,51.97,0000 0000 0000 0000 000000
2016-12-12 10:32:51,0.32,12.01,0.00,19.68,24.47,28.29,15.10,55.28,1029.30,2034.99,1114.15,1301.60,1455.36,599.93,610.24,52.02,0000 0000 0000 0000 000000
2016-12-12 10:37:53,0.34,12.03,0.00,19.67,24.45,28.20,15.00,55.17,1029.22,2034.99,1112.65,1300.52,1453.91,599.74,610.00,52.07,0000 0000 0000 0000 000000
2016-12-12 10:42:54,0.35,12.05,0.00,19.65,24.45,28.17,15.01,54.95,1029.37,2034.99,1110.90,1299.27,1452.56,599.56,610.03,52.12,0000 0000 0000 0000 000000
2016-12-12 10:47:55,0.30,12.06,0.00,19.64,24.43,28.22,15.09,55.08,1029.42,2034.99,1109.58,1298.18,1451.36,599.74,610.08,52.17,0000 0000 0000 0000 000000
2016-12-12 10:52:56,0.28,12.08,0.00,19.62,24.42,28.13,15.11,55.13,1029.49,2034.99,1108.23,1297.10,1450.11,600.07,610.56,52.22,0000 0000 0000 0000 000000
2016-12-12 10:57:57,0.31,12.09,0.00,19.61,24.41,28.12,15.11,55.06,1029.63,2035.00,1106.87,1296.04,1448.84,600.18,610.83,52.27,0000 0000 0000 0000 000000
2016-12-12 11:02:59,0.32,12.11,0.00,19.56,24.40,28.08,15.09,54.98,1029.78,2035.00,1105.54,1295.00,1447.66,599.98,610.76,52.32,0000 0000 0000 0000 000000
2016-12-12 11:08:00,0.29,12.12,0.00,19.57,24.39,28.07,15.12,55.02,1029.79,2035.00,1104.16,1293.95,1446.41,600.28,611.20,52.37,0000 0000 0000 0000 000000
2016-12-12 11:13:01,1.02,12.16,0.00,19.57,24.37,28.06,15.04,55.09,1029.50,2035.01,1100.16,1290.99,1443.15,600.13,610.72,52.42,0000 0000 0000 0000 000000
2016-12-12 11:18:02,0.28,12.19,0.00,19.60,24.37,28.02,15.11,55.10,1029.22,2035.00,1098.45,1289.64,1441.51,600.48,610.92,52.47,0000 0000 0000 0000 000000
2016-12-12 11:23:04,0.27,12.20,0.00,19.58,24.35,28.07,15.07,55.23,1029.27,2035.03,1097.12,1288.66,1440.36,600.08,610.57,52.52,0000 0000 0000 0000 000000
2016-12-12 11:28:05,0.30,12.22,0.00,19.57,24.35,28.07,15.12,55.15,1029.35,2035.03,1095.88,1287.58,1439.13,600.30,610.91,52.57,0000 0000 0000 0000 000000
2016-12-12 11:33:06,0.32,12.23,0.00,19.56,24.34,28.08,15.01,55.12,1029.31,2035.07,1094.64,1286.59,1437.93,599.83,610.34,52.62,0000 0000 0000 0000 000000
2016-12-12 11:38:07,0.30,12.25,0.00,19.53,24.32,28.02,15.02,54.93,1029.34,2035.06,1093.42,1285.53,1436.70,599.94,610.51,52.67,0000 0000 0000 0000 000000
2016-12-12 11:43:09,0.29,12.26,0.00,19.50,24.32,27.98,15.07,54.79,1029.57,2035.19,1092.13,1284.55,1435.58,599.92,610.76,52.73,0000 0000 0000 0000 000000
2016-12-12 11:48:10,0.32,12.28,0.00,19.53,24.30,28.05,15.02,54.84,1029.35,2035.29,1090.76,1283.50,1434.37,599.44,610.10,52.78,0000 0000 0000 0000 000000
2016-12-12 11:53:11,0.35,12.30,0.00,19.55,24.30,28.00,15.04,55.05,1029.34,2035.50,1089.52,1282.48,1433.20,599.75,610.35,52.83,0000 0000 0000 0000 000000
2016-12-12 11:58:13,0.29,12.32,0.00,19.55,24.28,28.07,15.09,55.04,1029.60,2035.72,1088.23,1281.45,1432.03,599.94,610.69,52.88,0000 0000 0000 0000 000000
2016-12-12 12:03:14,0.30,12.33,0.00,19.55,24.27,27.99,15.05,54.91,1029.61,2035.81,1086.96,1280.42,1430.79,599.81,610.46,52.93,0000 0000 0000 0000 000000
2016-12-12 12:08:15,0.30,12.34,0.00,19.54,24.27,27.97,15.00,54.88,1029.37,2035.74,1085.78,1279.40,1429.63,599.75,610.30,52.98,0000 0000 0000 0000 000000
2016-12-12 12:13:16,0.33,12.36,0.00,19.55,24.27,28.05,15.13,54.96,1029.49,2035.88,1084.53,1278.47,1428.47,600.17,610.89,53.03,0000 0000 0000 0000 000000
2016-12-12 12:18:17,0.27,12.38,0.00,19.55,24.26,27.96,15.07,55.00,1029.65,2035.85,1083.27,1277.47,1427.28,599.73,610.50,53.08,0000 0000 0000 0000 000000
2016-12-12 12:23:18,0.25,12.39,0.00,19.58,24.25,28.03,14.99,54.95,1029.32,2035.82,1081.98,1276.46,1426.08,600.10,610.67,53.13,0000 0000 0000 0000 000000
2016-12-12 12:28:20,0.36,12.41,0.00,19.59,24.25,28.06,15.04,55.00,1029.38,2035.88,1080.72,1275.48,1424.91,599.98,610.54,53.18,0000 0000 0000 0000 000000
2016-12-12 12:33:21,0.27,12.42,0.00,19.59,24.25,28.04,15.01,54.95,1029.42,2035.77,1079.52,1274.42,1423.73,599.94,610.42,53.23,0000 0000 0000 0000 000000
2016-12-12 12:38:22,0.30,12.44,0.00,19.59,24.25,27.99,15.00,54.85,1029.34,2035.89,1078.21,1273.37,1422.55,599.59,610.14,53.28,0000 0000 0000 0000 000000
2016-12-12 12:43:23,0.32,12.45,0.00,19.65,24.25,28.03,15.07,54.91,1029.31,2035.92,1076.84,1272.35,1421.36,600.17,610.59,53.33,0000 0000 0000 0000 000000
2016-12-12 12:48:25,0.31,12.47,0.00,19.64,24.26,28.00,15.02,54.90,1029.31,2035.91,1075.57,1271.35,1420.16,600.00,610.41,53.38,0000 0000 0000 0000 000000